Location: Hurstbourne Priors
(51.2000°N, 1.3667°W)
Time: 19:41:34
(UTC+00:00)

Transit 4A - Pass Details

Date: 22 April 2021
Orbit: 870 x 974 km, 66.8° (Epoch: 09 May)

Event Time Altitude Azimuth Distance (km) Brightness Sun altitude
Rises 01:12:21 0° 252° (WSW) 3,610 - -24.9°
Reaches altitude 10° 01:15:11 10° 262° (W) 2,652 - -24.7°
Exits shadow 01:16:39 17° 270° (W) 2,202 9.7 -24.6°
Maximum altitude 01:20:44 34° 326° (NW) 1,485 9.2 -24.4°
Drops below altitude 10° 01:26:10 10° 31° (NNE) 2,595 11.3 -24.1°
Sets 01:28:55 0° 40° (NE) 3,522 12.1 -23.9°
